FLOCK 4S-14 (47528 NORAD) Tracking and Keplerian Element Data
This shows tracking and keplerian element data for the satellite.
Feedback or suggestion? Click here.
Element | Value |
Catalog | 47528 |
Name | FLOCK 4S-14 |
Epoch Orbit | 1355 |
Epoch Day | 105.94636632 |
Epoch Year | 2021 |
RAAN | 168.2298 |
Inclination | 97.5014 |
Eccentricity | 0.0007753 |
Argument of Perigee | 340.2906 |
Mean Anonmoly | 19.8024 |
Mean Motion | 15.11951554 |
Decay Rate | 1.495E-05 |
L1 | 1 47528U 21006DU 21105.94636632 .00001495 00000-0 90936-4 0 9993 |
L2 | 2 47528 97.5014 168.2298 0007753 340.2906 19.8024 15.11951554 13551 |
Live tracking and technical data element details for FLOCK 4S-14 (NORAD 47528). FLOCK 4S-14 can be tracked NOW for your location showing map with azimuth and elevation plus other details from your city location.
Track the satellite on the map from your city or location and see movement details for azimuth, elevation, latitude, longitude, range, height, and movement on the map or in text.
IsCatalogInMostPopularTable: catalog: 47528, numindb: 18
Update: records affected: 1
GetName: 47528 FLOCK 4S-14
Hit Count: updated at: Fri, 16 Apr 2021 11:25:44 GMT